sat.trackr.live / text

‹ back to catalog

STARLINK-33779

NORAD 63880 · 2025-094S

PAYLOAD ACTIVE UNKNOWN

§ Identity

Operator
Country
US
Launch date
2025-05-10
Launch site
AFWTR
Launch vehicle
Mass (kg)
RCS (m²)

Purposes: comms

External: N2YO · Heavens-Above · Gunter

§ Orbital elements

Epoch: 2026-09-20T22:00:03.000096Z

Period
94.09 min
Inclination
69.9999°
Eccentricity
0.0003494
Mean motion
15.30381190 rev/d
Perigee alt
472.3 km
Apogee alt
477.1 km
Semi-major
6,852.8 km
B*
1.3779e-3
RAAN
100.0717°
Arg perigee
279.5303°
Mean anomaly
322.6294°
Rev number
577

§ Raw data

STARLINK-337791 63880U 25094S   26263.91670139  .00040693  00000+0  13779-2 0  99902 63880  69.9999 100.0717 0003494 279.5303 322.6294 15.30381190  5771

JSON: /api/v1/satellites/63880 · /tle

For live sub-satellite position, see the globe view (requires WebGL).

§ Visibility from observer

Set your observer location to see the next 7 days of passes ≥ 10°. The values pass through the URL so the page stays shareable.

No JS? Fill the form by hand. The geolocation button needs JavaScript.